BIPCOM Weather Reports


Display with metric or nautical units.
time (UTC)temp
F
wind
direction
speed
MPH
gust
MPH
rain 1hr
in
rain 24hr
in
rain mn
in
humidity
%
barometer
mb
20260505065549 52 13 14.0 17.0 0.00 0.00 0.00 88 1011.5
20260505065038 53 9 12.0 16.0 0.00 0.00 0.00 89 1011.5
20260505064547 52 23 13.0 16.0 0.00 0.00 0.00 89 1011.5
20260505064007 52 20 13.0 16.0 0.00 0.00 0.00 90 1011.6
20260505063550 52 22 13.0 16.0 0.00 0.00 0.00 89 1011.7
20260505063046 52 15 14.0 17.0 0.00 0.00 0.00 89 1011.7
20260505062530 52 5 15.0 17.0 0.00 0.00 0.00 89 1011.6
20260505062020 52 5 14.0 17.0 0.00 0.00 0.00 89 1011.6
20260505061514 52 12 14.0 20.0 0.00 0.00 0.00 89 1011.6
20260505061101 52 11 16.0 20.0 0.00 0.00 0.00 89 1011.6
20260505060551 52 16 16.0 18.0 0.00 0.00 0.00 89 1011.6
20260505060041 52 5 14.0 18.0 0.00 0.00 0.00 89 1011.7
20260505055531 52 14 14.0 19.0 0.00 0.00 0.00 89 1011.7
20260505055021 52 15 15.0 19.0 0.00 0.00 0.00 89 1011.6
20260505054511 53 21 16.0 19.0 0.00 0.00 0.00 90 1011.5
20260505054103 53 26 16.0 19.0 0.00 0.00 0.00 90 1011.4
20260505053541 53 24 16.0 18.0 0.00 0.00 0.00 89 1011.5
20260505053031 53 24 15.0 19.0 0.00 0.00 0.00 89 1011.5
20260505052521 53 10 16.0 19.0 0.00 0.00 0.00 89 1011.4
20260505052011 53 19 16.0 19.0 0.00 0.00 0.00 89 1011.4
20260505051502 53 29 17.0 19.0 0.00 0.00 0.00 89 1011.4
20260505051052 53 14 16.0 21.0 0.00 0.00 0.00 89 1011.4
20260505050542 53 14 18.0 21.0 0.00 0.00 0.00 89 1011.2
20260505041612 53 18 13.0 15.0 0.00 0.00 0.00 90 1011.2
20260505041044 53 9 12.0 14.0 0.00 0.00 0.00 91 1011.4
20260505040534 53 5 10.0 13.0 0.00 0.00 0.00 91 1011.4
20260505040024 53 5 10.0 13.0 0.00 0.00 0.00 91 1011.4
20260505035515 53 351 11.0 13.0 0.00 0.00 0.00 91 1011.4
20260505035003 53 5 10.0 12.0 0.00 0.00 0.00 91 1011.5
20260505034600 53 360 9.0 12.0 0.00 0.00 0.00 91 1011.6
20260505034047 53 360 10.0 12.0 0.00 0.00 0.00 91 1011.6
20260505033526 53 355 10.0 13.0 0.00 0.00 0.00 91 1011.6
20260505033017 53 22 10.0 13.0 0.00 0.00 0.00 91 1011.6
20260505032503 54 5 10.0 13.0 0.00 0.00 0.00 91 1011.7
20260505032055 54 33 11.0 13.0 0.00 0.00 0.00 91 1011.8
20260505031549 53 46 9.0 12.0 0.00 0.00 0.00 91 1011.8
20260505031032 53 53 9.0 12.0 0.00 0.00 0.00 91 1011.8
20260505030522 54 49 8.0 14.0 0.00 0.00 0.00 91 1011.8
20260505030012 54 43 10.0 12.0 0.00 0.00 0.00 91 1011.9
20260505025502 54 45 10.0 14.0 0.00 0.00 0.00 91 1011.8
20260505025056 54 42 10.0 14.0 0.00 0.00 0.00 90 1011.8
20260505024547 54 37 12.0 14.0 0.00 0.00 0.00 90 1011.8
20260505024033 54 47 10.0 14.0 0.00 0.00 0.00 90 1011.8
20260505023512 54 42 12.0 16.0 0.00 0.00 0.00 90 1011.8
20260505023002 54 46 12.0 17.0 0.00 0.00 0.00 90 1011.8
20260505022554 54 39 13.0 17.0 0.00 0.00 0.00 90 1011.7
20260505022043 54 42 14.0 16.0 0.00 0.00 0.00 89 1011.8
20260505021539 54 38 14.0 16.0 0.00 0.00 0.00 89 1011.7
20260505021022 54 40 13.0 16.0 0.00 0.00 0.00 89 1011.8
20260505020512 54 24 10.0 15.0 0.00 0.00 0.00 89 1011.8
20260505020002 54 49 12.0 15.0 0.00 0.00 0.00 89 1011.8
20260505015557 54 49 12.0 14.0 0.00 0.00 0.00 89 1011.8
20260505015043 54 30 10.0 14.0 0.00 0.00 0.00 89 1011.9
20260505014540 54 37 12.0 13.0 0.00 0.00 0.00 89 1011.9
20260505014011 54 26 10.0 14.0 0.00 0.00 0.00 89 1011.9
20260505013501 54 13 11.0 15.0 0.00 0.00 0.00 89 1011.9
20260505013059 54 5 12.0 15.0 0.00 0.00 0.00 89 1011.8
20260505012543 55 13 11.0 14.0 0.00 0.00 0.00 89 1011.9
20260505012034 55 26 11.0 14.0 0.00 0.00 0.00 89 1012.0
20260505011523 55 42 12.0 14.0 0.00 0.00 0.00 89 1012.1
20260505011012 55 30 12.0 15.0 0.00 0.00 0.00 89 1012.2
20260505010504 55 40 13.0 15.0 0.00 0.00 0.00 89 1012.2
20260505010054 55 35 13.0 15.0 0.00 0.00 0.00 89 1012.2
20260505005544 55 24 13.0 15.0 0.00 0.00 0.00 89 1012.1
20260505005034 55 19 13.0 15.0 0.00 0.00 0.00 89 1012.1
20260505004524 55 19 11.0 14.0 0.00 0.00 0.00 89 1012.3
20260505004003 55 11 12.0 16.0 0.00 0.00 0.00 89 1012.3
20260505003553 55 14 12.0 17.0 0.00 0.00 0.00 89 1012.3
20260505003043 55 11 13.0 17.0 0.00 0.00 0.00 89 1012.1
20260505002536 55 13 14.0 17.0 0.00 0.00 0.00 89 1012.1
20260505002022 55 9 14.0 17.0 0.00 0.00 0.00 89 1012.1
20260505001515 55 360 13.0 16.0 0.00 0.00 0.00 89 1012.2
20260505001003 55 5 13.0 15.0 0.00 0.00 0.00 89 1012.2
20260505000553 55 13 13.0 15.0 0.00 0.00 0.00 89 1012.2
20260505000052 55 13 12.0 14.0 0.00 0.00 0.00 89 1012.3
20260504235533 55 14 12.0 14.0 0.00 0.00 0.00 89 1012.4
20260504235023 55 15 12.0 14.0 0.00 0.00 0.00 88 1012.4
20260504234512 56 18 11.0 13.0 0.00 0.00 0.00 89 1012.4
20260504234104 56 15 10.0 12.0 0.00 0.00 0.00 89 1012.4
20260504233543 56 15 9.0 13.0 0.00 0.00 0.00 89 1012.5
20260504233035 56 15 10.0 13.0 0.00 0.00 0.00 88 1012.5
20260504232524 56 21 11.0 13.0 0.00 0.00 0.00 88 1012.4
20260504232016 56 25 9.0 11.0 0.00 0.00 0.00 88 1012.4
20260504231513 56 36 7.0 9.0 0.00 0.00 0.00 88 1012.5
20260504231055 56 22 7.0 10.0 0.00 0.00 0.00 88 1012.4
20260504230545 56 26 9.0 10.0 0.00 0.00 0.00 88 1012.3
20260504230035 56 31 9.0 11.0 0.00 0.00 0.00 87 1012.3
20260504225524 56 34 9.0 11.0 0.00 0.00 0.00 87 1012.4
20260504225014 56 42 9.0 11.0 0.00 0.00 0.00 87 1012.4
20260504224506 56 49 7.0 10.0 0.00 0.00 0.00 86 1012.5
20260504224100 56 41 5.0 9.0 0.00 0.00 0.00 86 1012.5
20260504223536 56 32 6.0 9.0 0.00 0.00 0.00 85 1012.4
20260504223025 56 28 5.0 9.0 0.00 0.00 0.00 85 1012.5
20260504222515 56 20 7.0 10.0 0.00 0.00 0.00 84 1012.4
20260504222005 56 17 8.0 10.0 0.00 0.00 0.00 84 1012.4
20260504221602 56 31 6.0 9.0 0.00 0.00 0.00 83 1012.5
20260504221047 56 11 5.0 8.0 0.00 0.00 0.00 83 1012.5
20260504220536 56 5 5.0 7.0 0.00 0.00 0.00 83 1012.6
20260504220030 56 14 5.0 6.0 0.00 0.00 0.00 82 1012.6
20260504215516 56 14 6.0 7.0 0.00 0.00 0.00 82 1012.6
20260504215006 56 14 4.0 7.0 0.00 0.00 0.00 81 1012.7
20260504214558 56 316 3.0 5.0 0.00 0.00 0.00 81 1012.7
20260504214047 56 325 3.0 6.0 0.00 0.00 0.00 80 1012.7
20260504213528 56 317 4.0 5.0 0.00 0.00 0.00 80 1012.6
20260504213016 56 317 3.0 5.0 0.00 0.00 0.00 80 1012.6
20260504212508 56 309 3.0 5.0 0.00 0.00 0.00 79 1012.5
20260504212058 56 293 4.0 6.0 0.00 0.00 0.00 79 1012.5
20260504211551 56 296 3.0 6.0 0.00 0.00 0.00 79 1012.5
20260504211037 56 313 3.0 6.0 0.00 0.00 0.00 79 1012.5
20260504210527 56 313 3.0 6.0 0.00 0.00 0.00 79 1012.5
20260504210017 56 291 3.0 7.0 0.00 0.00 0.00 79 1012.5
20260504205507 56 291 3.0 8.0 0.00 0.00 0.00 79 1012.6
20260504205058 56 292 4.0 8.0 0.00 0.00 0.00 79 1012.6
20260504204559 56 291 3.0 6.0 0.00 0.00 0.00 79 1012.5
20260504204038 56 301 3.0 5.0 0.00 0.00 0.00 79 1012.5
20260504203517 56 274 2.0 6.0 0.00 0.00 0.00 79 1012.4
20260504203018 56 296 3.0 8.0 0.00 0.00 0.00 79 1012.4
20260504202559 56 317 4.0 8.0 0.00 0.00 0.00 79 1012.4
20260504202049 56 295 5.0 9.0 0.00 0.00 0.00 79 1012.4
20260504201546 56 308 5.0 9.0 0.00 0.00 0.00 79 1012.4
20260504201029 57 319 4.0 8.0 0.00 0.00 0.00 79 1012.4
20260504200518 57 309 3.0 5.0 0.00 0.00 0.00 78 1012.3
20260504200008 57 292 2.0 4.0 0.00 0.00 0.00 78 1012.4
20260504195557 57 292 1.0 4.0 0.00 0.00 0.00 78 1012.5
20260504195045 57 292 2.0 5.0 0.00 0.00 0.00 78 1012.4
20260504194556 57 292 2.0 5.0 0.00 0.00 0.00 78 1012.4
20260504194025 57 298 3.0 4.0 0.00 0.00 0.00 78 1012.4
20260504193505 57 265 2.0 6.0 0.00 0.00 0.00 78 1012.2
20260504193056 57 265 3.0 6.0 0.00 0.00 0.00 78 1012.1
20260504192545 57 293 2.0 5.0 0.00 0.00 0.00 78 1012.1
20260504192035 57 281 2.0 7.0 0.00 0.00 0.00 78 1012.1
20260504191529 57 284 3.0 8.0 0.00 0.00 0.00 78 1012.2
20260504191016 57 275 4.0 9.0 0.00 0.00 0.00 78 1012.2
20260504190505 57 308 5.0 9.0 0.00 0.00 0.00 78 1012.2
20260504190125 57 300 5.0 10.0 0.00 0.00 0.00 78 1012.1
20260504185546 57 316 5.0 9.0 0.00 0.00 0.00 78 1012.1
20260504185036 57 309 5.0 9.0 0.00 0.00 0.00 78 1012.1
20260504184533 57 303 4.0 9.0 0.00 0.00 0.00 78 1012.1
20260504184005 57 259 5.0 10.0 0.00 0.00 0.00 78 1012.1
20260504183558 57 205 4.0 11.0 0.00 0.00 0.00 79 1012.1
20260504183047 57 197 9.0 11.0 0.00 0.00 0.00 78 1012.0
20260504182527 58 192 8.0 10.0 0.00 0.00 0.00 78 1011.9
20260504182017 58 171 4.0 5.0 0.00 0.00 0.00 76 1011.9
20260504181508 59 192 3.0 5.0 0.00 0.00 0.00 76 1011.8
20260504181059 59 192 4.0 5.0 0.00 0.00 0.00 75 1011.8
20260504180548 59 180 3.0 4.0 0.00 0.00 0.00 75 1011.7
20260504180106 59 180 2.0 4.0 0.00 0.00 0.00 73 1011.7
20260504175528 60 218 0.0 2.0 0.00 0.00 0.00 73 1011.8
20260504175018 59 218 1.0 2.0 0.00 0.00 0.00 73 1011.7
20260504174507 59 219 0.0 4.0 0.00 0.00 0.00 73 1011.7
20260504174059 59 218 2.0 4.0 0.00 0.00 0.00 73 1011.7
20260504173538 59 219 1.0 4.0 0.00 0.00 0.00 73 1011.7
20260504173028 59 219 2.0 5.0 0.00 0.00 0.00 74 1011.7
20260504172517 59 205 3.0 7.0 0.00 0.00 0.00 74 1011.7
20260504172008 59 211 3.0 8.0 0.00 0.00 0.00 74 1011.7
20260504171602 59 238 3.0 8.0 0.00 0.00 0.00 74 1011.7
20260504171049 59 225 4.0 7.0 0.00 0.00 0.00 73 1011.7
20260504170539 60 209 4.0 7.0 0.00 0.00 0.00 72 1011.7
20260504151033 58 238 9.0 15.0 0.00 0.00 0.00 74 1012.0
20260504150521 58 240 10.0 16.0 0.00 0.00 0.00 74 1012.0
20260504141018 59 215 6.0 15.0 0.00 0.00 0.00 76 1012.4
20260504140506 58 204 7.0 13.0 0.00 0.00 0.00 76 1012.4
20260504140122 58 228 7.0 12.0 0.00 0.00 0.00 76 1012.4
20260504130554 58 224 5.0 12.0 0.00 0.00 0.00 79 1012.4
20260504110530 56 220 8.0 10.0 0.00 0.00 0.00 85 1012.7
20260504100521 55 172 6.0 9.0 0.00 0.00 0.00 88 1012.8
20260504081522 55 156 6.0 7.0 0.00 0.00 0.00 88 1012.4
20260504081012 55 162 4.0 6.0 0.00 0.00 0.00 89 1012.4
20260504080502 54 161 4.0 6.0 0.00 0.00 0.00 89 1012.3